| time (UTC) | temp F | wind direction | speed knots | gust knots | rain 1hr in | rain 24hr in | rain mn in | humidity % | barometer mb |
| 20260505170649 | 55 | 151 | 2.6 | 6.1 | 0.00 | 0.24 | 0.24 | 81 | 1008.0 |
| 20260505165148 | 55 | 267 | 1.7 | 7.8 | 0.00 | 0.24 | 0.24 | 78 | 1008.2 |
| 20260505163645 | 57 | 0 | 5.2 | 5.2 | 0.00 | 0.24 | 0.24 | 77 | 1007.8 |
| 20260505162143 | 57 | 55 | 3.5 | 4.3 | 0.00 | 0.24 | 0.24 | 75 | 1007.7 |
| 20260505160641 | 57 | 24 | 4.3 | 5.2 | 0.00 | 0.24 | 0.24 | 78 | 1007.6 |
| 20260505152132 | 55 | 1 | 2.6 | 6.1 | 0.00 | 0.24 | 0.24 | 84 | 1008.0 |
| 20260505150627 | 56 | 74 | 1.7 | 2.6 | 0.00 | 0.24 | 0.24 | 84 | 1008.0 |
| 20260505140616 | 57 | 328 | 4.3 | 5.2 | 0.00 | 0.24 | 0.24 | 82 | 1006.4 |
| 20260505123553 | 58 | 41 | 0.0 | 3.5 | 0.00 | 0.24 | 0.24 | 89 | 1006.1 |
| 20260505122050 | 58 | 114 | 0.0 | 2.6 | 0.00 | 0.24 | 0.24 | 91 | 1005.7 |
| 20260505120545 | 58 | 20 | 3.5 | 4.3 | 0.00 | 0.24 | 0.24 | 91 | 1004.9 |
| 20260505115045 | 58 | 131 | 0.0 | 4.3 | 0.00 | 0.24 | 0.24 | 91 | 1005.5 |
| 20260505113541 | 59 | 108 | 0.0 | 3.5 | 0.00 | 0.24 | 0.24 | 91 | 1004.8 |
| 20260505112038 | 60 | 146 | 1.7 | 4.3 | 0.00 | 0.24 | 0.24 | 93 | 1004.6 |
| 20260505110536 | 60 | 152 | 1.7 | 3.5 | 0.00 | 0.24 | 0.24 | 95 | 1004.6 |
| 20260505102026 | 61 | 110 | 0.0 | 1.7 | 0.00 | 0.24 | 0.24 | 94 | 1005.2 |
| 20260505100524 | 61 | 157 | 0.9 | 1.7 | 0.00 | 0.24 | 0.24 | 94 | 1005.4 |
| 20260505095019 | 61 | 10 | 1.7 | 3.5 | 0.00 | 0.24 | 0.24 | 94 | 1005.0 |
| 20260505093514 | 62 | 312 | 0.0 | 1.7 | 0.00 | 0.24 | 0.24 | 93 | 1004.2 |
| 20260505092013 | 62 | 156 | 0.0 | 1.7 | 0.00 | 0.24 | 0.24 | 92 | 1003.8 |
| 20260505090512 | 62 | 196 | 1.7 | 2.6 | 0.00 | 0.24 | 0.24 | 92 | 1004.2 |
| 20260505085011 | 62 | 185 | 2.6 | 5.2 | 0.00 | 0.24 | 0.24 | 93 | 1004.2 |
| 20260505083509 | 62 | 145 | 1.7 | 4.3 | 0.00 | 0.23 | 0.23 | 94 | 1003.4 |
| 20260505082004 | 62 | 185 | 2.6 | 4.3 | 0.00 | 0.23 | 0.23 | 94 | 1003.3 |
| 20260505080459 | 62 | 196 | 0.9 | 2.6 | 0.02 | 0.23 | 0.23 | 95 | 1003.3 |
| 20260505074954 | 62 | 189 | 3.5 | 3.5 | 0.00 | 0.23 | 0.23 | 95 | 1003.6 |
| 20260505073452 | 62 | 151 | 1.7 | 2.6 | 0.05 | 0.22 | 0.22 | 95 | 1005.4 |
| 20260505071947 | 62 | 176 | 1.7 | 2.6 | 0.17 | 0.20 | 0.20 | 94 | 1005.3 |
| 20260505070444 | 62 | 232 | 4.3 | 11.3 | 0.14 | 0.15 | 0.15 | 93 | 1006.5 |
| 20260505064939 | 62 | 164 | 1.7 | 7.8 | 0.14 | 0.11 | 0.11 | 92 | 1006.7 |
| 20260505063436 | 63 | 217 | 7.0 | 8.7 | 0.17 | 0.07 | 0.07 | 90 | 1006.5 |
| 20260505061932 | 64 | 180 | 5.2 | 6.1 | 0.12 | 0.03 | 0.03 | 83 | 1005.3 |
| 20260505060431 | 66 | 142 | 3.5 | 5.2 | 0.02 | 0.00 | 0.00 | 76 | 1004.6 |
| 20260505054926 | 67 | 147 | 3.5 | 5.2 | 0.00 | 0.00 | 0.00 | 71 | 1004.1 |
| 20260505053424 | 67 | 15 | 0.9 | 2.6 | 0.00 | 0.00 | 0.00 | 72 | 1004.1 |
| 20260505051921 | 67 | 147 | 0.9 | 3.5 | 0.00 | 0.00 | 0.00 | 71 | 1004.5 |
| 20260505050419 | 67 | 165 | 0.9 | 2.6 | 0.00 | 0.00 | 0.00 | 71 | 1004.6 |
| 20260505040405 | 67 | 100 | 0.0 | 1.7 | 0.00 | 0.00 | 0.00 | 71 | 1004.6 |
| 20260505034900 | 67 | 169 | 1.7 | 4.3 | 0.00 | 0.00 | 0.00 | 69 | 1005.0 |
| 20260505033356 | 68 | 136 | 0.9 | 3.5 | 0.00 | 0.00 | 0.00 | 70 | 1004.7 |
| 20260505031853 | 68 | 147 | 0.9 | 3.5 | 0.00 | 0.00 | 0.00 | 69 | 1005.2 |
| 20260505030349 | 69 | 148 | 1.7 | 3.5 | 0.00 | 0.00 | 0.00 | 68 | 1004.9 |
| 20260505024847 | 68 | 105 | 1.7 | 2.6 | 0.00 | 0.00 | 0.00 | 67 | 1005.3 |
| 20260505023344 | 69 | 159 | 0.9 | 1.7 | 0.00 | 0.00 | 0.00 | 68 | 1005.3 |
| 20260505021841 | 70 | 89 | 0.9 | 1.7 | 0.00 | 0.00 | 0.00 | 66 | 1004.9 |
| 20260505020341 | 70 | 167 | 1.7 | 3.5 | 0.00 | 0.00 | 0.00 | 64 | 1004.7 |
| 20260505014838 | 70 | 146 | 0.0 | 3.5 | 0.00 | 0.00 | 0.00 | 64 | 1004.6 |
| 20260505013334 | 71 | 162 | 0.9 | 2.6 | 0.00 | 0.00 | 0.00 | 63 | 1004.6 |
| 20260505011832 | 71 | 196 | 0.0 | 2.6 | 0.00 | 0.00 | 0.00 | 62 | 1004.5 |
| 20260505010333 | 72 | 187 | 3.5 | 5.2 | 0.00 | 0.00 | 0.00 | 59 | 1004.3 |
| 20260505004830 | 73 | 173 | 2.6 | 3.5 | 0.00 | 0.00 | 0.00 | 58 | 1004.3 |
| 20260505003326 | 74 | 169 | 1.7 | 5.2 | 0.00 | 0.00 | 0.00 | 59 | 1004.1 |
| 20260505001823 | 74 | 153 | 3.5 | 4.3 | 0.00 | 0.00 | 0.00 | 57 | 1004.0 |
| 20260505000321 | 75 | 190 | 2.6 | 3.5 | 0.00 | 0.00 | 0.00 | 58 | 1003.9 |
| 20260504234816 | 76 | 185 | 1.7 | 7.8 | 0.00 | 0.00 | 0.00 | 53 | 1003.8 |
| 20260504233312 | 76 | 162 | 0.9 | 2.6 | 0.00 | 0.00 | 0.00 | 57 | 1003.7 |
| 20260504231809 | 78 | 186 | 5.2 | 6.1 | 0.00 | 0.00 | 0.00 | 52 | 1003.9 |
| 20260504230306 | 79 | 174 | 3.5 | 5.2 | 0.00 | 0.00 | 0.00 | 49 | 1003.9 |
| 20260504224803 | 81 | 175 | 1.7 | 2.6 | 0.00 | 0.00 | 0.00 | 51 | 1003.7 |
| 20260504223258 | 80 | 163 | 2.6 | 6.1 | 0.00 | 0.00 | 0.00 | 47 | 1003.6 |
| 20260504221755 | 80 | 198 | 4.3 | 5.2 | 0.00 | 0.00 | 0.00 | 50 | 1003.4 |
| 20260504220252 | 81 | 183 | 3.5 | 5.2 | 0.00 | 0.00 | 0.00 | 48 | 1003.6 |
| 20260504214747 | 83 | 199 | 5.2 | 7.8 | 0.00 | 0.00 | 0.00 | 47 | 1003.9 |
| 20260504213243 | 83 | 194 | 5.2 | 6.1 | 0.00 | 0.00 | 0.00 | 47 | 1003.6 |
| 20260504211740 | 82 | 183 | 5.2 | 7.8 | 0.00 | 0.00 | 0.00 | 45 | 1003.8 |
| 20260504210236 | 83 | 190 | 3.5 | 9.6 | 0.00 | 0.00 | 0.00 | 47 | 1003.9 |
| 20260504204735 | 83 | 194 | 8.7 | 9.6 | 0.00 | 0.00 | 0.00 | 46 | 1004.3 |
| 20260504203235 | 82 | 177 | 1.7 | 2.6 | 0.00 | 0.00 | 0.00 | 49 | 1004.5 |
| 20260504201735 | 81 | 185 | 7.8 | 9.6 | 0.00 | 0.00 | 0.00 | 49 | 1004.5 |
| 20260504200231 | 83 | 194 | 3.5 | 8.7 | 0.00 | 0.00 | 0.00 | 48 | 1004.8 |
| 20260504194727 | 83 | 197 | 4.3 | 4.3 | 0.00 | 0.00 | 0.00 | 47 | 1004.8 |
| 20260504193223 | 82 | 176 | 5.2 | 11.3 | 0.00 | 0.00 | 0.00 | 46 | 1005.2 |
| 20260504191723 | 82 | 191 | 6.1 | 14.8 | 0.00 | 0.00 | 0.00 | 43 | 1005.5 |
| 20260504190223 | 82 | 178 | 6.1 | 11.3 | 0.00 | 0.00 | 0.00 | 49 | 1005.6 |
| 20260504184719 | 82 | 201 | 2.6 | 7.8 | 0.00 | 0.00 | 0.00 | 47 | 1005.2 |
| 20260504183214 | 81 | 171 | 3.5 | 8.7 | 0.00 | 0.00 | 0.00 | 49 | 1004.9 |
| 20260504181712 | 81 | 204 | 5.2 | 10.4 | 0.00 | 0.00 | 0.00 | 47 | 1005.4 |
| 20260504180213 | 81 | 158 | 3.5 | 12.2 | 0.00 | 0.00 | 0.00 | 49 | 1005.6 |
| 20260504174710 | 80 | 211 | 4.3 | 10.4 | 0.00 | 0.00 | 0.00 | 47 | 1005.5 |
| 20260504173207 | 79 | 186 | 3.5 | 9.6 | 0.00 | 0.00 | 0.00 | 49 | 1005.6 |